This is the latest recevied weather packets stored in our database for station/object KG4LKY-5. If no packets are shown the sender has not sent any weather packets the latest 10 day(s).
| Time | Temp. | Humidity | Pressure | Rain* | Wind** | Luminosity | Snow |
|---|---|---|---|---|---|---|---|
| 1778067245 | 16.11° C | 100% | 1010.3 hPa | 13.46 mm | - | - | - |
| 1778066644 | 16.11° C | 100% | 1010.1 hPa | 13.21 mm | - | - | - |
| 1778066344 | 15.56° C | 100% | 1009.9 hPa | 12.95 mm | - | - | - |
| 1778066044 | 15° C | 100% | 1010 hPa | 12.95 mm | - | - | - |
| 1778065744 | 15.56° C | 100% | 1009.8 hPa | 12.95 mm | - | - | - |
| 1778065443 | 15.56° C | 100% | 1009.7 hPa | 11.18 mm | - | - | - |
| 1778065143 | 15.56° C | 100% | 1010 hPa | 10.16 mm | - | - | - |
| 1778064843 | 15.56° C | 100% | 1010 hPa | 8.13 mm | - | - | - |
| 1778064543 | 16.11° C | 100% | 1009.3 hPa | 7.37 mm | - | - | - |
| 1778064243 | 15.56° C | 100% | 1009.4 hPa | 7.11 mm | - | - | - |
| 1778063942 | 15° C | 100% | 1009.3 hPa | 6.6 mm | - | - | - |
| 1778063642 | 15.56° C | 100% | 1009.4 hPa | 5.84 mm | - | - | - |
| 1778063341 | 15.56° C | 100% | 1009.1 hPa | 5.59 mm | - | - | - |
| 1778063041 | 16.11° C | 100% | 1008.9 hPa | 5.33 mm | - | - | - |
| 1778062741 | 15.56° C | 100% | 1008.9 hPa | 5.08 mm | - | - | - |
| 1778062441 | 15.56° C | 100% | 1009 hPa | 4.83 mm | - | - | - |
| 1778062140 | 15° C | 100% | 1008.8 hPa | 4.57 mm | - | - | - |
| 1778061840 | 15.56° C | 100% | 1008.5 hPa | 4.57 mm | - | - | - |
| 1778061540 | 15.56° C | 100% | 1008.7 hPa | 4.06 mm | - | - | - |
| 1778061239 | 15° C | 100% | 1008.7 hPa | 3.05 mm | - | - | - |
| 1778060939 | 15.56° C | 100% | 1008.3 hPa | 2.54 mm | - | - | - |
| 1778060639 | 16.11° C | 100% | 1008.3 hPa | 2.54 mm | - | - | - |
| 1778060339 | 15.56° C | 100% | 1008.5 hPa | 2.54 mm | - | - | - |
| 1778060038 | 15.56° C | 100% | 1008 hPa | 2.54 mm | - | - | - |
| 1778059738 | 15.56° C | 100% | 1008 hPa | 2.29 mm | - | - | - |
* Rain since midnight (hover to see other rain measurements)
** Current wind speed in m/s (hover to see current wind gust speed)